{"data":{"norad_id":35682,"epoch":"2026-05-25T02:14:57.335424Z","epoch_age_seconds":69971,"freshness":"FRESH","line1":"1 35682U 09041B   26145.09371916  .00000765  00000+0  12100-3 0  9996","line2":"2 35682  98.0021 278.6094 0011304 139.8327 220.3719 14.75078492901690","mean_motion":14.75078492,"eccentricity":0.0011304,"inclination_deg":98.0021,"raan_deg":278.6094,"arg_perigee_deg":139.8327,"mean_anomaly_deg":220.3719,"bstar":0.000121,"rev_number":90169,"period_min":97.621923701671,"perigee_km":636.9632768052,"apogee_km":652.84096364821,"semimajor_km":7023.0391202267,"source":"CELESTRAK","updated_at":"2026-05-25T13:38:12.776505Z"}}